RH
19 18 19 19 20 20 20 22 22 23 25 29 33 35 38 40 43 44 39 39 43 43 42 42 41 39 38 36 36 34 32 32 31 29 29 28 27 26 26 26 24 23 22 24 23 19 19 18 18 25 30 26 24 25 27 30 30 30 33 34 33 28 48 91 100 97 104 88 76 84 83 73 63 53 46 41 43 44 40 38 37 36 35 35 33 33
19 19 20 19 20 20 21 22 22 23 25 28 31 32 35 38 39 40 35 35 42 42 39 40 39 39 38 35 34 33 32 31 30 30 29 27 26 25 26 26 25 23 21 22 21 19 19 18 26 32 31 40 43 35 35 35 39 48 41 31 26 25 55 91 81 70 77 70 80 103 96 74 60 53 51 49 49 48 42 40 40 40 39 39 37 35
20 20 20 20 20 21 22 22 22 23 24 26 28 30 33 35 36 35 32 35 40 38 37 37 37 38 37 34 32 32 31 30 30 29 27 27 26 23 25 26 26 23 20 21 21 20 18 22 44 53 49 56 46 33 39 40 48 61 54 47 46 48 63 66 56 62 71 75 93 107 95 74 62 57 52 49 48 45 44 46 46 46 44 41 42 40
21 21 20 20 22 23 23 23 23 24 24 26 27 29 30 32 33 32 32 33 34 34 34 33 35 36 34 33 31 30 30 29 29 27 26 26 24 24 27 26 26 24 24 24 21 22 22 22 41 65 75 67 42 33 40 40 57 67 60 66 65 56 49 48 70 93 93 94 101 99 89 73 61 55 48 46 46 43 43 47 47 50 50 46 46 46
21 21 21 22 24 24 24 24 24 24 24 26 26 27 29 29 28 28 29 29 30 33 32 31 34 32 32 32 30 30 29 27 27 26 26 26 26 28 26 26 27 23 22 23 22 23 24 23 34 64 88 84 71 70 56 45 64 68 49 46 48 45 46 65 96 106 99 101 98 92 88 74 60 52 46 43 44 44 45 48 50 52 54 53 51 51
21 21 23 24 24 24 24 24 24 24 25 25 26 27 27 26 27 27 26 28 30 31 30 30 30 29 31 32 29 29 27 27 29 28 27 27 27 26 25 27 27 22 22 24 24 24 28 29 28 54 94 104 97 97 85 69 69 68 53 38 45 62 73 90 105 101 100 103 99 98 91 71 55 48 44 40 40 46 50 53 55 56 59 59 58 58
21 23 25 25 24 24 24 25 25 25 26 26 27 27 26 25 27 27 26 29 30 30 31 29 28 29 30 29 30 28 27 31 38 37 32 30 29 28 28 27 22 22 22 20 31 40 40 33 24 43 83 96 92 98 101 87 75 81 73 48 54 78 88 99 103 99 101 101 102 100 80 60 51 46 43 38 38 45 50 53 54 55 59 60 60 62
22 24 25 25 25 25 24 25 25 25 26 26 27 26 26 27 27 27 28 30 31 31 32 29 28 29 28 31 31 28 28 30 36 37 31 31 30 25 26 27 26 29 30 40 63 66 47 37 36 37 42 51 67 90 103 94 88 98 88 66 70 80 82 90 96 99 100 101 105 93 66 54 50 43 39 39 45 52 53 55 56 55 55 55 58 61
22 24 25 25 25 26 25 25 24 25 26 26 28 28 28 29 29 30 29 31 33 32 33 31 29 29 30 36 34 33 37 35 32 30 28 34 32 31 47 54 49 47 56 81 91 71 52 51 51 40 27 28 39 63 91 96 99 107 99 92 95 90 86 88 92 99 103 104 106 98 78 59 47 41 41 46 56 63 60 58 59 58 57 55 57 59
23 24 25 26 27 26 25 25 25 26 26 27 29 29 30 30 31 32 32 34 35 34 34 33 32 33 32 34 32 33 36 33 34 31 29 35 32 39 60 63 67 77 86 103 94 71 75 75 61 46 28 20 30 62 93 95 96 103 98 98 100 94 93 95 94 95 102 105 103 104 96 74 59 50 46 54 63 64 60 57 57 57 56 56 56 58
23 25 26 27 28 27 26 27 26 26 26 27 29 29 31 32 32 34 35 36 36 34 35 35 35 35 33 34 34 34 34 37 46 44 36 40 38 46 60 62 80 97 99 104 91 81 95 86 64 54 39 35 61 96 105 95 95 98 96 100 102 98 96 98 98 90 93 103 99 100 102 92 87 77 59 55 56 55 55 53 53 52 52 54 54 54
24 25 28 28 27 27 27 27 26 26 25 26 28 29 31 32 33 36 37 38 39 38 37 37 38 37 35 37 37 39 40 42 50 51 48 50 46 51 66 68 77 93 102 103 85 79 96 87 72 79 81 80 95 107 100 96 101 97 97 103 102 101 100 99 103 96 94 100 95 96 102 99 101 99 79 60 51 50 51 51 52 52 53 54 53 53
24 25 27 28 27 27 27 27 27 26 27 28 29 31 32 34 35 36 38 40 40 40 40 42 43 44 44 37 37 47 47 40 48 56 58 59 51 54 63 56 59 83 94 84 75 83 94 91 90 99 100 91 92 98 96 98 104 100 98 102 100 100 101 101 105 104 104 104 96 94 100 100 100 102 90 71 61 55 49 50 53 55 57 57 55 55
24 25 26 27 28 28 28 29 29 29 30 30 32 32 34 42 40 35 41 45 47 52 53 50 48 52 53 39 40 61 60 51 65 74 65 58 60 74 80 65 63 82 87 81 89 95 86 89 102 102 97 96 94 95 94 95 101 100 97 99 102 101 100 102 104 102 102 103 99 96 99 101 99 100 98 86 77 67 57 56 55 50 51 54 57 56
30 27 29 30 30 31 31 31 31 32 33 32 33 35 43 58 53 39 44 52 55 58 54 50 49 50 52 39 38 56 53 51 79 96 85 73 80 95 99 92 86 87 93 97 92 76 63 78 98 95 92 101 103 98 96 99 100 99 99 99 101 102 102 103 101 99 101 102 102 101 100 101 99 100 103 99 93 83 71 67 61 53 50 48 53 57
37 34 33 33 32 34 35 33 32 33 34 33 35 39 49 64 58 41 44 53 56 52 44 44 46 44 49 47 44 51 46 48 79 100 96 93 99 102 96 96 93 76 73 83 80 68 60 64 75 79 78 85 99 102 98 101 102 101 102 100 100 102 102 103 101 102 103 97 99 105 102 100 101 101 103 103 102 97 91 85 75 70 66 55 50 54
44 42 37 34 36 39 37 34 34 35 36 34 35 41 47 53 52 44 43 50 54 52 46 47 51 51 58 63 65 68 59 56 72 83 84 86 85 81 76 76 73 63 63 76 85 80 65 56 61 68 66 68 87 101 101 102 102 101 101 101 104 103 97 98 101 103 101 82 78 100 105 98 101 102 100 102 102 101 102 98 90 88 83 71 62 58
49 44 41 41 40 40 40 38 37 38 38 37 38 44 45 45 48 46 44 44 48 51 49 51 58 61 64 71 79 83 70 58 60 61 69 84 84 82 86 80 68 65 66 68 70 65 54 52 57 59 56 56 70 88 98 103 101 98 99 99 104 104 96 95 97 101 104 85 72 93 106 100 100 102 99 101 101 101 101 99 97 96 86 75 73 72
54 50 49 52 49 43 45 44 43 45 44 43 46 47 47 49 50 47 46 46 46 50 50 50 57 59 57 62 69 72 65 55 50 45 55 85 100 99 102 97 84 73 64 57 57 56 52 48 48 49 50 55 65 75 82 95 103 103 102 100 102 105 99 97 98 96 101 99 89 95 105 102 100 99 98 100 99 99 100 99 100 97 90 85 86 87
77 72 58 54 52 48 48 47 50 58 54 50 54 52 51 56 54 48 47 49 50 53 53 50 53 52 49 51 55 59 58 53 48 42 48 71 90 98 103 104 99 88 72 64 62 59 54 48 43 45 49 54 65 72 74 88 105 106 103 101 101 104 101 98 98 96 97 102 98 97 102 102 99 98 98 100 100 99 99 101 100 96 93 93 94 93
99 95 77 64 55 51 55 56 59 65 60 55 55 54 57 59 56 53 56 61 61 60 57 53 51 48 44 46 50 55 56 57 57 53 51 55 63 84 100 100 98 94 85 82 79 71 64 58 50 47 50 55 67 83 90 95 105 105 99 98 100 101 102 100 98 98 99 101 101 99 99 100 100 100 100 100 99 99 100 101 99 96 94 93 93 91
101 105 99 86 72 66 64 59 60 62 60 61 60 60 63 62 59 57 59 66 68 64 60 55 50 47 44 44 47 52 55 58 58 53 52 51 52 67 80 80 83 89 88 89 86 77 70 67 62 53 50 55 67 92 104 96 97 103 99 98 99 97 99 101 100 98 98 99 101 101 100 100 100 101 101 100 99 98 100 100 99 99 99 98 98 97
101 104 103 98 94 91 74 62 70 73 66 69 72 70 68 66 65 59 55 62 66 64 61 56 50 48 47 47 46 47 49 49 49 47 47 48 49 55 60 63 72 78 80 81 76 72 71 72 71 62 53 52 60 81 97 94 93 102 103 100 97 96 99 101 99 98 100 100 100 100 100 99 99 98 99 98 97 98 99 100 99 100 100 99 99 100
102 99 99 103 104 103 91 87 97 92 77 80 88 86 78 73 69 61 60 65 63 62 62 59 57 54 57 65 59 47 43 42 42 42 41 40 44 54 63 74 83 84 83 84 79 74 73 71 72 68 59 55 54 63 81 94 98 100 102 100 97 97 99 99 99 100 100 99 100 100 100 100 98 98 99 100 100 99 100 100 100 100 100 99 98 99
94 90 94 104 104 102 100 104 110 100 90 97 100 94 89 87 84 79 80 79 73 75 80 79 75 67 66 74 68 55 49 44 41 39 38 41 51 67 80 91 101 100 95 97 95 89 83 76 73 73 67 61 56 56 68 88 103 104 100 100 100 100 99 98 100 101 100 100 99 98 100 102 98 94 95 97 99 99 99 100 100 100 100 99 100 99
73 78 88 100 102 104 101 98 102 101 101 106 102 99 100 99 99 98 98 96 93 96 100 98 92 83 77 78 74 69 65 55 49 49 51 54 63 80 93 99 105 105 101 102 102 97 94 87 81 81 80 72 64 59 59 70 88 100 102 100 99 99 101 100 100 100 99 100 100 98 100 101 98 92 86 86 91 97 99 100 100 100 100 101 105 101
56 62 77 82 85 102 105 95 98 103 105 106 102 104 107 103 101 102 103 103 100 100 105 104 99 95 91 92 92 88 81 68 55 53 60 65 69 81 93 96 99 100 99 101 101 97 97 94 89 86 85 81 76 72 68 65 70 82 94 101 101 100 100 100 100 101 100 100 100 100 100 100 101 95 84 79 84 90 93 98 101 100 99 101 105 104
54 55 67 67 67 88 97 92 99 106 105 104 103 104 104 103 104 104 104 104 99 99 105 103 100 99 96 98 103 98 88 78 67 63 70 74 74 80 85 85 86 89 91 95 97 97 97 96 95 91 87 86 84 81 81 77 71 71 77 85 94 100 102 102 101 100 100 101 100 99 100 101 103 102 95 88 86 88 91 97 101 101 100 100 102 98
59 56 61 61 62 76 86 89 93 95 96 99 101 103 103 102 103 103 104 105 103 104 104 99 100 105 100 98 103 103 94 86 79 77 80 80 79 81 83 81 82 84 87 93 96 98 99 99 100 98 94 91 87 84 84 81 77 77 78 78 83 88 91 98 103 103 103 104 102 101 100 97 94 96 96 91 86 88 90 87 88 94 94 89 85 79
62 62 61 59 59 65 79 92 92 86 89 96 95 97 101 104 102 101 102 103 103 103 101 100 102 103 101 100 102 103 101 96 90 87 87 88 89 90 91 92 91 88 89 93 94 96 99 100 101 101 100 98 93 88 86 84 80 80 80 80 82 81 78 82 92 97 101 105 105 103 100 95 88 82 79 74 69 71 75 72 71 75 73 66 63 64
67 65 64 62 59 57 65 80 85 79 84 94 97 96 100 104 101 98 99 100 102 102 101 102 103 101 101 104 102 100 102 102 102 99 95 93 93 96 99 99 95 93 92 91 91 94 98 100 100 100 100 99 97 92 91 91 88 83 81 81 81 81 78 77 80 86 94 102 105 104 102 101 99 93 88 85 79 74 71 67 62 59 55 52 54 58
76 71 69 66 65 62 60 64 68 66 65 74 87 93 96 100 101 99 98 99 100 100 99 99 100 101 105 106 104 103 101 101 103 104 101 96 92 92 94 92 87 87 88 90 91 91 92 93 94 95 95 95 96 95 93 93 91 89 89 89 85 83 82 81 81 84 89 96 102 105 103 101 102 102 101 101 98 93 90 86 80 75 73 71 72 75
89 84 78 72 70 71 68 63 61 61 56 55 67 77 78 82 91 98 100 99 99 100 101 100 99 102 106 107 109 109 106 104 104 102 101 99 94 89 86 84 83 81 82 85 87 86 86 86 87 88 89 91 93 95 96 96 95 92 92 92 91 89 88 86 85 85 87 93 99 103 104 102 102 101 101 102 102 101 101 101 98 97 96 96 96 97
102 97 91 85 82 80 77 70 65 66 62 59 63 66 59 55 65 79 90 97 100 99 98 99 100 102 102 103 108 111 109 108 106 101 97 94 91 88 85 84 83 83 86 89 91 93 93 91 89 88 90 94 96 98 100 100 97 94 90 87 84 82 83 84 83 82 82 85 90 94 98 102 104 104 102 102 102 101 101 101 100 100 101 101 101 102
110 108 102 97 93 88 83 81 77 73 71 70 69 65 57 51 52 58 67 76 84 89 90 90 94 98 100 100 103 106 107 106 103 99 95 90 87 85 84 87 93 99 101 100 99 100 100 98 97 99 101 103 103 102 100 96 92 87 84 82 79 77 79 80 80 81 82 84 86 88 91 96 101 105 104 102 102 102 101 101 101 102 102 101 101 101
111 112 106 103 102 97 94 94 89 83 80 78 73 67 65 64 61 57 56 58 63 70 78 82 86 90 94 99 103 104 105 104 100 97 97 96 95 95 94 99 106 111 109 106 104 105 104 104 103 99 95 92 90 89 87 83 80 76 73 72 71 71 73 74 75 78 82 85 86 88 91 94 98 102 104 104 104 103 101 102 103 103 103 103 103 102
109 111 108 107 107 103 102 102 96 89 88 85 80 74 71 69 68 65 63 62 60 60 63 67 71 74 78 87 97 103 107 108 106 104 104 104 106 106 105 105 108 109 107 106 106 105 104 103 100 96 92 88 86 87 85 79 74 70 66 65 64 64 65 67 69 71 73 76 81 86 91 95 98 101 102 104 104 103 102 103 103 102 102 104 105 105
106 108 107 109 110 107 105 103 98 96 97 95 93 91 85 78 73 69 68 69 67 66 65 64 65 67 67 72 80 88 94 99 100 101 103 107 110 108 106 104 104 104 105 104 104 105 104 102 100 100 101 99 97 96 95 91 84 77 72 69 66 62 58 57 59 63 65 68 72 77 83 88 91 94 96 98 99 98 99 99 97 96 97 99 100 101
106 105 105 107 110 109 107 106 105 105 106 104 103 104 101 95 86 77 73 73 71 73 76 74 73 72 72 74 75 76 74 72 78 89 99 104 108 108 106 105 104 102 102 102 102 104 103 101 101 101 102 102 103 102 102 101 98 93 91 88 83 74 63 56 56 57 58 60 62 63 66 71 75 78 80 83 84 85 86 86 84 84 84 85 85 84
106 105 104 105 107 106 105 107 108 109 109 107 106 107 107 105 101 95 88 83 79 78 77 77 77 77 79 80 78 74 69 61 65 83 94 94 96 101 104 106 107 105 104 103 104 105 103 101 102 102 100 99 101 101 101 101 100 99 99 100 97 90 79 70 65 60 55 54 53 53 54 56 59 61 62 63 63 64 65 65 65 65 65 65 65 64
102 104 103 102 105 105 103 103 103 102 106 108 107 105 105 105 107 108 105 99 94 89 82 78 76 75 77 77 75 77 79 71 66 72 75 72 75 81 87 93 98 102 103 103 102 101 100 99 101 103 104 104 103 103 103 104 104 104 103 103 104 102 97 89 82 76 68 61 57 55 55 55 55 56 57 58 57 56 57 58 59 59 60 60 60 58
90 98 103 103 104 102 101 103 100 93 94 103 105 101 100 100 102 104 105 106 108 106 98 90 83 78 74 72 71 76 80 77 74 75 75 72 70 68 69 72 75 80 84 86 85 83 81 81 82 85 90 93 96 97 98 100 103 105 105 103 103 102 99 93 85 78 72 66 61 57 56 55 55 55 56 58 58 58 59 60 61 62 63 66 68 64
76 89 101 102 100 99 100 103 102 93 89 95 100 99 98 99 98 96 96 101 107 108 104 98 94 90 86 83 82 82 80 76 76 77 78 78 78 77 76 76 74 73 72 71 71 70 68 67 67 68 70 74 77 80 81 83 87 92 96 98 98 97 95 92 88 84 80 78 75 73 71 70 70 69 69 69 68 68 69 70 71 72 73 74 77 76
63 75 86 88 90 99 103 100 97 97 98 99 101 102 103 101 100 98 97 97 98 96 95 97 100 102 101 100 101 101 98 95 91 87 84 82 80 79 80 81 82 82 81 80 80 78 75 73 71 69 69 69 70 71 72 72 73 76 79 83 85 87 88 89 88 88 87 87 86 86 85 85 85 84 84 83 83 82 82 84 84 83 82 83 84 85
50 57 65 68 73 85 93 88 84 88 96 99 100 103 104 102 101 101 99 97 94 90 90 95 101 104 103 102 101 102 103 103 102 101 100 97 92 88 85 84 83 83 83 84 87 88 89 88 85 82 80 78 76 75 74 73 73 74 75 76 77 79 80 80 79 79 78 78 78 77 77 76 76 77 77 78 80 81 82 84 85 85 85 85 85 85
40 42 47 51 54 59 65 67 67 69 74 79 84 90 93 95 97 96 95 94 92 88 88 91 94 95 94 94 93 92 91 92 94 96 98 99 100 99 95 92 90 89 86 83 83 85 87 87 87 88 87 87 86 85 84 83 82 80 80 79 79 79 79 78 78 77 75 74 72 70 69 67 66 65 66 66 66 68 70 72 74 76 77 80 82 82
39 40 41 43 43 44 45 47 49 51 53 56 60 65 70 75 80 82 83 84 82 79 78 81 82 83 83 83 84 83 83 82 83 85 87 89 91 93 93 91 91 91 90 88 87 87 86 85 85 85 85 85 85 84 85 85 84 82 81 79 78 77 76 76 77 77 76 75 73 72 70 68 66 64 63 62 61 60 61 62 63 66 67 69 73 76
40 43 43 43 42 42 42 43 44 45 46 47 48 50 53 56 60 63 66 68 68 65 64 65 67 69 70 71 73 74 75 75 75 75 76 77 78 80 83 84 83 83 84 85 86 87 86 85 84 83 83 83 81 79 79 78 76 74 72 71 70 69 70 70 71 72 73 72 70 70 68 66 64 62 60 58 57 56 55 55 56 58 59 61 63 65
40 42 42 41 40 40 40 41 43 44 45 46 46 47 49 50 52 53 55 56 57 57 56 55 56 58 60 62 63 65 66 67 68 67 67 68 69 70 71 72 71 71 73 75 77 77 76 75 75 74 74 73 72 70 70 68 65 62 59 58 58 58 57 58 58 58 59 58 57 55 54 53 52 51 50 48 47 46 46 46 47 48 49 51 53 54
36 38 38 38 37 37 37 40 41 42 42 42 44 45 47 49 50 51 52 52 52 53 53 53 53 53 54 56 58 59 60 61 62 62 61 60 61 62 63 62 61 61 61 62 62 62 62 62 62 62 62 62 61 60 58 56 54 52 50 49 48 48 48 48 47 46 46 46 45 44 43 42 41 40 40 40 39 38 38 37 37 38 39 40 41 43
33 33 33 34 33 33 35 37 39 39 39 39 41 43 45 45 46 48 49 50 51 51 51 51 51 51 52 53 53 54 56 57 57 58 58 57 56 57 57 56 56 55 54 54 53 52 52 52 52 52 52 52 52 51 50 48 47 46 45 44 44 44 43 42 42 42 41 40 40 39 38 37 35 34 34 34 34 34 33 33 32 33 33 34 34 35
Wind_Speed
56 56 57 58 59 60 60 61 61 60 59 59 62 61 60 60 60 62 59 52 55 58 59 60 61 63 63 61 61 62 62 62 63 63 64 64 63 62 60 59 60 60 59 61 63 61 58 55 51 52 56 53 50 48 47 46 45 44 43 42 43 41 35 33 36 40 41 43 44 42 40 39 40 42 42 41 42 41 41 41 42 42 42 43 43 42
53 54 55 56 57 57 58 59 59 58 59 61 62 61 61 61 61 63 57 50 56 60 59 60 61 61 63 62 60 60 60 61 62 62 63 63 62 60 58 57 57 58 58 60 62 59 55 50 45 48 53 49 47 47 45 45 43 40 40 41 42 39 34 36 42 45 45 45 44 40 40 40 40 40 40 39 39 39 39 39 39 38 38 37 37 37
51 52 54 54 53 54 56 57 57 58 59 60 61 61 61 62 62 61 55 52 59 61 60 59 59 61 63 62 60 59 60 60 61 62 62 62 61 59 56 54 55 56 57 59 59 56 51 43 37 42 49 46 46 48 45 44 41 39 38 35 35 35 36 39 42 42 43 43 43 42 43 43 41 41 41 40 39 38 37 37 36 35 33 32 31 30
50 51 51 50 50 52 54 55 56 57 58 59 60 61 61 62 62 59 56 57 60 60 60 58 59 61 62 61 60 59 60 60 60 61 60 60 58 55 53 52 52 53 55 57 55 52 47 39 31 33 43 46 45 45 44 43 41 38 37 33 33 36 39 37 33 35 39 41 43 46 47 46 44 43 42 40 39 38 37 36 34 31 29 27 25 25
49 49 48 48 50 52 53 54 55 55 57 58 59 60 60 61 61 59 58 58 58 60 60 59 60 61 60 61 61 59 60 59 59 59 57 56 54 52 51 50 50 51 53 54 52 49 45 39 30 26 34 43 43 42 41 40 39 38 38 38 37 37 37 31 25 32 39 42 47 49 50 49 46 44 42 41 39 38 37 35 32 29 27 25 23 22
47 45 46 48 50 51 52 52 53 54 55 56 57 58 60 59 58 58 57 57 58 59 60 60 60 60 60 61 60 59 60 57 56 55 54 53 52 51 50 47 49 50 51 51 48 45 41 38 31 23 26 35 39 39 39 37 36 36 35 36 36 33 32 28 24 33 41 44 48 50 51 51 49 46 43 42 40 38 36 33 30 28 26 24 22 22
45 44 47 48 49 50 50 51 52 52 53 54 55 57 57 55 56 56 54 56 58 58 59 60 59 59 59 60 59 59 57 53 51 51 51 50 50 49 46 45 47 47 47 47 44 41 38 37 33 25 28 35 36 35 35 34 33 31 31 31 31 30 30 27 24 32 42 46 49 51 52 53 51 48 45 43 41 38 35 32 30 28 26 25 23 23
44 45 47 48 48 49 49 50 50 51 52 52 53 54 53 52 53 53 53 54 56 57 58 59 57 57 57 57 58 58 55 52 50 50 49 48 47 46 44 43 43 43 41 39 38 38 38 36 32 29 33 36 34 31 30 28 26 27 30 29 28 29 28 23 22 33 45 49 50 51 52 52 50 48 46 43 41 38 35 32 30 29 27 26 25 24
44 46 47 46 47 48 49 49 48 50 50 50 51 51 50 50 50 51 51 52 54 55 56 57 56 55 54 55 56 52 48 48 50 50 48 46 45 42 37 35 36 36 32 29 34 38 37 34 30 27 30 30 29 27 23 20 21 22 23 24 26 26 23 20 22 36 49 51 50 49 48 48 47 45 44 41 38 36 33 31 30 29 28 27 27 26
43 45 46 46 48 49 48 47 48 50 49 49 49 49 48 48 48 49 50 51 53 53 53 54 53 53 54 54 54 50 46 47 49 48 46 42 41 37 33 31 30 29 26 27 34 35 30 29 26 22 23 23 20 18 17 16 19 20 20 25 29 26 25 27 26 32 44 49 48 47 45 43 41 39 38 38 37 35 33 31 30 29 29 29 28 28
44 45 46 48 49 49 47 48 49 50 49 48 48 48 47 48 48 49 49 51 52 52 51 52 51 53 54 51 50 49 46 45 43 42 41 38 36 34 32 30 28 27 28 30 31 27 23 22 18 13 13 12 12 16 20 21 23 28 32 35 37 34 36 38 34 31 34 39 40 41 40 37 35 34 34 36 36 35 32 30 29 28 28 29 29 29
45 46 47 49 49 49 48 49 50 49 48 48 48 47 47 48 48 48 49 50 50 50 50 50 50 51 53 49 46 46 44 42 39 39 39 37 35 35 33 31 31 32 32 32 30 26 24 20 11 6 8 15 16 17 21 27 31 37 41 41 40 40 41 42 41 41 38 35 32 34 34 33 31 31 31 31 31 32 30 28 27 26 26 27 27 27
46 46 48 49 49 48 49 49 49 49 48 47 48 47 47 48 49 48 48 48 49 49 49 48 48 50 52 48 42 42 43 41 39 39 38 37 36 37 37 36 35 35 34 34 32 28 26 20 11 11 18 26 29 25 27 35 42 45 44 41 38 39 41 43 45 46 45 41 35 32 31 30 28 27 27 27 27 27 26 24 23 23 24 25 24 24
45 46 47 47 47 48 48 48 49 48 48 48 48 47 47 48 49 48 47 48 48 49 48 48 48 49 52 47 39 39 41 38 37 36 36 36 34 32 35 35 32 30 31 34 34 32 30 23 21 25 31 36 38 39 40 43 46 45 40 38 38 40 42 44 45 45 46 46 44 39 34 29 26 25 26 28 29 28 25 23 22 22 23 24 23 22
45 45 46 47 48 48 49 49 49 49 49 49 48 47 47 49 51 49 48 49 50 51 49 48 49 50 50 47 41 42 42 38 37 35 33 32 29 29 32 32 29 27 30 36 40 40 37 32 31 34 39 42 44 45 45 43 43 43 39 38 41 44 45 46 46 46 46 47 49 48 43 36 31 28 28 30 31 31 30 29 28 27 26 26 25 24
44 45 47 48 47 48 49 49 49 49 49 49 49 49 49 51 52 50 48 49 50 51 49 48 49 49 47 45 44 44 42 39 37 34 33 31 30 33 36 37 36 34 36 41 44 44 41 38 37 37 40 44 45 46 47 45 44 44 44 43 43 45 48 50 50 50 49 49 50 50 48 44 40 37 37 38 37 35 33 33 33 32 31 32 31 29
43 45 46 47 47 48 50 49 49 49 50 50 49 50 52 52 52 51 50 50 50 50 48 48 48 46 45 45 43 41 40 39 38 37 37 37 38 40 41 41 42 41 42 45 44 43 42 40 39 39 40 42 45 48 50 50 48 47 47 47 46 44 47 49 50 52 53 52 52 53 50 48 47 47 45 44 43 41 39 38 37 36 36 36 36 35
43 44 44 45 47 48 48 48 48 49 50 49 49 51 52 52 52 52 51 51 50 50 49 48 48 47 45 45 43 41 40 40 41 41 37 36 38 40 40 42 44 44 45 46 46 45 44 42 40 39 40 40 42 46 49 50 50 48 46 47 46 45 47 48 47 49 53 52 53 56 55 52 51 50 48 47 47 46 45 43 41 40 40 40 39 38
41 41 41 44 47 47 48 48 47 48 49 49 50 52 51 51 52 52 52 51 51 51 51 50 51 50 48 48 46 44 44 44 44 43 38 35 36 37 38 41 45 45 45 46 45 45 44 44 42 40 40 40 41 44 46 47 48 47 46 45 46 47 49 50 48 47 51 53 53 56 58 57 55 52 50 49 48 48 47 45 43 43 43 42 41 40
38 40 42 44 45 45 47 47 46 48 50 49 51 51 51 51 52 51 50 51 51 52 52 52 52 52 51 49 47 45 47 47 45 44 43 40 40 40 40 41 41 41 42 44 45 45 44 44 43 41 41 41 42 43 44 45 46 47 48 47 47 47 48 51 51 48 49 53 55 56 56 56 54 51 49 47 47 47 46 46 46 46 45 44 44 44
37 38 40 42 42 42 45 46 47 49 50 50 51 51 51 53 52 51 49 48 50 51 52 53 52 52 51 49 47 48 49 47 43 45 47 46 46 46 43 40 40 40 40 42 43 44 44 44 43 42 41 41 42 43 43 46 48 51 52 49 48 48 48 51 53 51 49 51 55 56 56 55 54 52 50 49 48 48 47 48 48 48 47 46 46 47
38 38 39 40 39 41 44 46 47 49 49 49 50 50 51 52 52 52 50 48 49 50 51 53 53 52 53 52 50 51 51 49 47 47 49 50 51 51 48 46 45 43 42 42 42 43 44 44 43 43 42 42 44 46 46 47 49 51 52 50 49 49 50 52 54 53 51 51 53 55 56 55 55 55 54 52 51 49 49 49 48 47 47 47 47 47
40 40 40 38 37 40 43 43 44 47 48 48 49 50 51 51 52 53 51 51 52 51 51 53 52 52 53 54 54 55 54 52 52 53 53 54 54 54 54 52 50 48 46 46 46 46 46 45 45 44 43 43 45 48 49 49 50 52 53 52 51 51 52 53 53 53 52 51 52 54 55 55 55 55 55 54 53 51 50 50 50 49 49 49 48 48
43 42 41 39 38 40 40 39 42 46 47 46 48 50 51 51 52 52 51 53 54 53 54 54 53 52 53 53 55 56 55 54 54 55 56 56 55 54 53 51 50 50 49 50 49 48 47 46 46 46 45 44 44 47 50 52 53 54 55 55 54 53 54 55 54 54 54 53 53 55 56 58 58 57 57 57 56 55 54 54 54 53 53 52 52 51
46 45 42 41 40 39 38 39 43 46 45 46 48 49 49 50 50 50 50 52 52 51 53 54 54 53 54 55 56 55 55 55 54 55 55 55 54 52 50 50 50 50 50 51 50 49 48 47 46 46 46 46 45 45 49 54 56 57 58 58 57 56 57 58 59 60 60 59 59 58 59 61 63 63 62 62 61 59 58 58 57 57 56 55 54 54
47 47 46 45 43 42 42 43 44 44 43 46 48 47 48 49 50 50 50 51 50 50 52 53 53 54 54 55 55 54 54 53 53 53 53 53 52 51 50 50 50 51 51 51 51 50 49 48 46 46 46 46 46 46 48 53 57 60 61 62 61 59 58 59 61 64 64 64 64 63 63 64 67 68 68 67 65 63 62 61 61 60 59 58 57 56
46 47 48 49 47 46 47 46 44 43 44 46 46 46 48 49 49 50 51 51 51 50 51 51 52 54 54 53 53 54 53 52 53 53 53 53 52 50 51 50 51 52 52 52 52 52 52 51 50 49 47 46 46 47 48 51 54 59 62 64 64 63 61 60 61 64 66 68 68 68 67 68 69 70 71 70 68 67 66 65 65 65 64 63 61 60
44 46 49 51 49 49 50 48 46 47 47 47 45 46 47 47 48 49 50 51 50 49 51 51 49 52 54 53 54 56 56 54 54 54 55 56 54 53 54 53 53 53 53 53 54 54 54 54 53 52 51 50 49 49 50 50 52 56 60 64 66 66 65 62 61 62 65 67 69 70 71 71 72 72 72 71 70 68 68 68 68 68 69 68 67 66
43 45 48 50 50 51 51 50 51 51 50 49 48 48 49 48 49 49 48 49 49 50 51 50 49 50 51 51 53 56 57 57 56 56 57 57 56 56 57 56 56 56 56 56 56 56 56 56 55 55 55 54 54 54 54 54 55 56 58 62 65 67 68 67 65 64 64 65 68 71 74 76 76 76 74 73 71 68 67 67 67 68 68 69 70 70
44 44 46 48 50 51 52 53 54 53 52 52 52 51 51 51 51 50 49 48 49 49 48 46 47 50 50 51 53 55 56 57 57 57 57 57 56 56 57 57 57 57 57 57 57 57 58 58 57 57 57 57 57 57 58 58 58 58 59 61 63 65 67 69 69 69 68 67 68 70 74 77 78 79 77 76 75 72 70 70 71 71 71 72 72 71
45 45 46 47 49 50 52 54 56 55 54 54 54 54 53 54 53 53 52 50 49 49 48 47 48 49 50 53 55 55 55 56 56 56 56 56 56 55 56 57 56 56 56 56 57 57 57 58 58 58 58 59 59 60 60 60 61 61 62 63 64 65 66 68 69 70 70 71 71 71 72 74 75 77 77 78 77 76 76 78 78 77 75 74 72 71
46 46 46 47 48 49 51 53 55 56 56 55 56 57 57 57 56 55 55 55 53 52 52 52 52 51 51 54 56 57 57 56 56 56 55 55 55 55 56 56 55 55 55 55 56 57 57 58 58 59 59 59 60 61 61 62 62 63 63 64 65 66 66 67 68 69 70 70 71 71 72 73 73 74 75 76 77 78 79 81 80 79 77 75 73 71
47 47 47 46 47 49 51 53 53 55 55 55 56 58 59 59 59 58 58 58 57 57 56 56 55 55 55 57 58 59 59 58 59 59 58 58 57 56 56 56 55 55 55 56 57 57 58 58 59 59 59 60 60 61 62 62 63 63 64 65 66 66 67 68 68 69 69 69 70 71 72 73 74 74 73 74 74 76 77 78 78 79 78 77 75 71
49 49 49 48 48 50 52 52 52 53 54 54 56 59 59 58 57 59 60 61 61 61 60 59 58 58 58 59 60 61 61 61 61 61 61 60 59 57 56 55 55 56 57 58 59 59 60 60 60 60 60 61 61 62 63 64 64 65 65 66 66 67 67 67 68 68 68 69 70 70 71 72 73 74 74 74 74 74 74 75 75 75 75 75 73 71
51 52 52 52 53 54 53 52 53 53 53 55 57 58 58 56 55 57 59 61 62 62 62 62 61 61 60 61 62 63 63 64 63 63 62 61 59 58 56 55 56 58 59 60 60 61 62 61 61 61 62 63 64 65 66 66 67 67 67 67 67 67 67 67 67 68 68 68 69 70 71 72 73 74 74 74 74 75 75 75 75 75 75 75 74 74
54 55 55 55 56 57 55 54 55 55 55 57 58 57 56 56 56 56 56 58 60 62 63 63 63 63 63 63 64 64 65 66 65 64 63 61 60 59 58 57 59 61 61 60 62 63 63 63 64 65 65 66 66 67 68 68 68 68 68 68 68 68 68 67 67 67 68 69 70 71 71 72 73 74 74 75 76 76 76 76 76 76 77 77 77 77
57 58 58 57 59 60 58 58 59 57 56 57 57 57 56 56 56 56 55 56 58 59 60 61 63 64 64 64 65 66 66 67 66 65 63 62 62 62 61 61 61 62 62 62 63 65 65 66 66 66 67 67 67 68 69 69 69 69 69 69 69 69 68 67 67 68 68 69 70 71 72 73 74 75 76 76 77 78 78 79 79 79 79 80 80 80
60 60 60 60 62 63 62 61 60 58 58 58 58 58 58 58 58 57 56 57 57 57 58 59 60 61 62 64 65 66 67 68 67 66 64 63 63 64 64 63 64 64 64 64 65 66 67 68 67 66 67 68 68 68 69 70 71 72 72 72 72 72 71 69 69 69 70 71 72 73 74 75 76 77 78 79 80 80 80 81 81 82 82 83 83 83
62 61 62 63 65 65 63 62 61 61 61 60 60 61 60 60 60 59 57 57 57 57 58 59 59 60 61 62 64 65 66 66 64 64 65 65 65 65 65 65 66 66 66 67 67 68 69 69 68 68 68 69 69 70 71 72 73 73 74 76 77 77 75 73 72 71 71 72 73 75 76 77 78 79 80 82 83 83 83 84 84 84 85 85 86 86
65 65 65 66 67 67 66 65 65 65 65 64 64 64 63 62 61 60 60 59 59 60 61 61 61 61 61 62 63 63 64 63 61 62 65 66 66 66 66 67 68 69 69 70 70 71 72 71 71 72 72 72 73 74 74 74 74 75 76 78 79 80 79 77 76 75 73 72 72 73 74 75 76 78 79 80 81 82 82 83 83 83 83 83 83 83
68 68 68 68 69 70 70 69 69 69 68 67 67 67 66 65 63 63 62 62 62 64 63 63 63 63 63 64 63 63 64 64 62 63 65 65 65 66 66 67 69 70 71 72 73 73 74 74 74 75 76 77 77 77 78 78 78 79 79 80 81 82 82 81 79 78 77 75 74 73 74 74 75 75 76 77 78 78 78 78 78 78 78 79 79 79
71 70 70 71 73 74 73 72 73 73 71 70 71 70 69 68 67 67 66 64 65 67 67 66 66 65 65 65 64 64 66 66 65 65 66 66 66 66 66 67 68 69 70 71 72 73 73 73 73 74 75 75 76 77 77 77 78 78 79 79 81 82 82 82 81 80 79 78 77 76 76 76 76 75 76 76 77 76 76 77 77 77 77 77 78 78
74 73 74 76 76 76 75 75 77 76 74 73 73 73 72 72 72 72 70 69 69 70 71 69 68 67 67 67 66 67 68 68 67 67 67 68 68 68 68 68 69 69 70 70 71 72 72 72 72 73 73 73 74 75 75 75 76 76 77 78 79 80 81 82 81 81 80 79 79 79 78 78 78 77 77 78 78 78 78 79 79 79 79 79 80 81
77 76 78 80 79 78 78 79 79 78 77 76 76 76 76 76 75 75 74 74 74 74 73 72 70 70 70 70 70 70 71 71 70 70 70 70 70 70 70 70 70 71 71 71 72 72 73 73 73 74 74 74 75 75 76 76 77 77 78 79 79 80 81 81 82 81 81 81 81 80 80 80 80 80 80 80 81 81 81 81 82 82 82 82 82 82
78 79 81 82 81 81 83 83 82 81 81 80 79 79 79 79 79 79 79 78 78 77 76 74 74 73 74 74 74 74 74 74 74 74 73 74 74 73 73 73 73 73 73 73 73 74 74 75 75 75 76 76 76 76 77 77 78 79 79 80 81 82 83 83 84 84 83 83 83 83 83 83 83 83 83 83 83 83 83 83 84 84 84 84 84 84
75 77 80 82 83 84 85 86 85 85 84 84 83 83 83 83 82 83 83 82 82 81 79 78 78 78 77 77 77 77 77 77 77 77 77 77 77 77 77 77 77 77 77 76 76 77 77 78 78 78 78 78 78 79 79 80 81 81 82 83 83 84 85 85 86 86 86 86 86 85 85 85 85 85 85 85 85 85 85 85 85 86 86 86 86 87
70 72 75 78 80 81 82 83 84 85 85 84 85 85 85 85 85 85 86 85 85 84 83 82 81 81 81 80 80 80 80 80 80 80 80 80 80 80 80 81 81 81 80 80 80 80 81 81 81 81 81 81 82 82 83 83 84 85 85 86 86 86 87 87 88 88 88 88 88 88 88 88 88 88 87 87 87 87 87 87 87 87 87 87 87 89
65 67 71 73 75 77 78 78 80 81 82 83 83 84 84 84 85 85 86 86 87 86 85 84 83 83 83 83 83 83 83 83 83 83 83 83 83 83 83 84 84 84 83 83 84 84 84 85 85 85 85 85 85 86 86 87 88 88 88 88 88 88 89 89 90 90 91 91 91 91 91 91 91 90 90 89 89 89 88 88 88 88 88 88 89 90
61 64 67 68 70 70 71 72 73 76 77 79 80 80 81 82 83 83 84 85 85 85 85 84 83 83 84 84 84 84 84 84 85 85 85 85 85 85 86 86 86 86 86 86 86 87 87 87 87 88 88 88 88 89 89 90 90 90 90 89 89 90 90 90 91 91 92 93 93 93 92 92 91 91 91 90 90 89 89 89 88 88 88 89 89 90
56 59 62 64 65 65 65 66 68 70 72 73 73 75 76 78 79 80 81 82 82 82 83 83 82 82 82 82 83 84 84 84 85 86 86 86 86 87 87 88 88 87 87 88 88 88 89 89 89 89 89 90 90 91 91 91 91 91 90 90 90 90 90 90 91 91 91 92 92 92 92 91 90 90 89 89 89 88 88 88 88 87 87 88 88 89
52 54 56 58 59 59 60 62 64 65 66 67 68 70 72 73 75 76 77 78 79 80 80 80 80 80 80 80 80 81 82 83 84 85 86 86 86 86 87 88 88 88 88 88 88 88 88 88 88 89 89 90 90 91 91 91 90 90 89 89 89 89 90 90 89 89 90 90 91 91 90 90 89 87 87 86 86 87 86 86 85 85 85 86 86 86
Wind_Direction
235 235 235 235 235 236 237 238 238 239 241 242 243 243 244 245 246 248 246 245 248 249 248 250 251 252 253 252 252 253 255 257 258 259 260 262 262 263 264 265 266 268 269 269 270 271 272 275 278 280 281 281 281 279 278 278 278 277 276 276 276 275 271 262 261 268 272 276 282 280 275 276 278 277 276 275 273 271 270 269 268 268 266 265 263 262
235 235 235 235 235 236 236 237 238 238 239 239 241 242 243 244 245 246 247 245 248 249 248 249 251 253 254 254 253 254 256 257 258 259 260 261 262 263 264 265 266 268 268 269 271 272 274 277 279 280 281 282 281 280 280 279 279 279 280 279 278 277 270 262 267 271 272 275 278 275 276 281 281 280 278 276 274 273 272 271 269 268 266 265 264 263
235 234 235 235 235 236 236 237 237 237 238 239 240 242 242 243 245 246 247 245 246 248 248 249 251 253 255 255 255 255 256 257 258 259 260 261 263 264 265 265 266 268 269 270 271 273 276 277 277 279 282 281 279 281 281 280 281 282 283 282 279 276 269 270 275 273 270 269 270 272 278 282 280 278 276 273 272 270 269 267 266 265 264 263 261 260
234 234 234 234 234 235 236 236 236 236 237 238 239 241 242 243 244 245 245 244 246 249 250 250 252 253 254 256 256 256 256 257 258 259 260 262 263 264 265 265 266 268 269 271 273 275 277 276 271 273 281 283 281 282 280 280 283 284 284 281 277 274 272 276 274 265 264 267 271 277 279 280 279 275 272 270 269 268 266 263 261 261 259 258 255 252
234 233 234 234 234 234 235 235 235 235 236 238 239 240 241 242 244 245 245 246 248 249 250 250 251 252 254 256 256 256 257 257 258 259 260 262 263 264 265 266 267 269 270 272 275 277 278 277 269 263 276 285 286 283 280 280 282 283 282 278 277 277 276 275 263 256 265 271 275 279 280 280 279 275 272 270 269 268 266 264 262 260 256 253 250 245
234 233 233 233 233 234 234 235 235 236 237 238 239 240 241 242 244 245 246 247 247 249 250 250 250 252 254 255 256 256 257 258 259 260 260 262 263 264 265 265 267 269 271 274 276 277 278 276 271 260 263 274 278 280 280 280 282 284 283 279 278 278 273 271 264 261 268 273 275 277 279 281 280 277 275 272 270 267 264 263 261 260 258 255 250 245
234 233 233 233 234 234 235 235 236 236 237 238 239 240 241 242 244 245 245 246 248 248 250 250 250 252 253 255 256 257 258 258 258 259 259 261 262 264 265 265 267 270 272 275 278 279 279 277 273 260 246 249 257 270 279 281 282 287 290 284 277 271 266 270 267 262 268 273 275 278 280 281 280 278 277 275 273 269 264 263 261 259 258 256 254 250
233 232 233 233 234 235 235 235 236 237 237 238 239 240 241 242 243 244 244 245 247 248 249 250 250 251 253 255 256 257 258 258 258 259 261 263 264 266 267 267 267 268 272 276 277 279 280 278 272 258 247 244 247 257 269 278 284 290 295 287 272 264 266 271 262 258 267 274 277 279 279 279 280 279 278 277 274 271 268 265 264 264 261 258 256 253
232 233 233 234 234 235 235 236 236 237 238 238 240 241 241 241 242 243 244 244 246 247 249 251 251 252 252 253 255 255 255 257 258 260 262 264 265 266 266 267 267 269 276 275 271 277 280 279 275 264 256 249 245 248 255 274 287 288 289 280 269 268 268 265 258 260 268 273 274 276 277 278 278 278 277 275 272 270 268 265 265 265 264 262 259 256
232 233 233 233 234 234 234 235 236 237 237 238 239 240 240 241 241 242 243 243 244 245 247 249 250 251 251 252 254 255 254 257 259 259 261 261 263 263 259 263 266 268 270 260 262 274 278 278 280 275 265 250 236 227 226 245 261 257 253 252 255 256 246 239 240 254 268 272 271 273 276 276 277 277 274 272 270 269 267 265 264 264 263 263 261 259
232 231 232 232 232 233 233 233 234 235 236 237 238 239 239 240 240 240 241 242 244 245 246 248 249 250 251 251 253 255 255 255 256 258 259 259 260 258 255 258 258 256 254 250 258 269 268 274 287 295 285 257 217 191 201 223 236 239 238 238 240 236 232 234 230 232 253 264 268 272 274 275 277 276 273 271 270 270 269 267 266 266 265 264 262 261
231 231 231 232 232 232 232 232 234 235 235 236 237 238 239 240 240 240 241 242 244 245 245 247 248 249 251 250 250 254 254 253 254 256 255 253 251 247 246 245 245 248 248 248 257 260 257 268 287 295 268 252 233 201 207 226 228 231 235 237 239 235 234 240 236 231 240 252 264 270 272 276 277 273 272 273 272 271 269 269 269 269 268 267 266 265
231 231 231 232 232 232 233 233 234 235 235 236 237 237 238 240 240 240 241 242 244 245 245 246 246 248 250 249 249 252 254 253 252 252 251 250 247 243 242 238 235 239 244 253 263 258 253 256 244 219 224 235 237 225 225 235 233 231 234 237 240 239 238 242 242 242 248 254 259 265 268 270 271 270 272 273 274 274 271 269 271 274 273 272 271 270
233 233 233 234 234 234 234 234 234 234 235 235 236 237 238 240 240 239 240 242 243 244 244 244 245 246 248 248 246 247 250 250 250 250 251 251 248 245 244 238 234 238 249 261 263 253 246 239 220 213 215 219 222 222 225 232 235 235 236 240 242 240 239 242 244 248 253 254 254 257 261 262 263 268 271 272 275 276 273 271 274 280 283 280 276 275
234 234 234 234 234 234 234 234 234 234 234 234 235 236 237 239 240 239 239 241 242 242 242 243 244 245 248 249 245 243 245 248 252 253 252 252 247 239 236 234 232 235 244 252 252 248 244 234 221 216 215 215 217 221 225 228 232 233 231 236 240 239 238 239 244 249 252 254 253 254 257 257 260 266 271 274 275 274 273 273 276 281 287 287 281 277
234 234 233 234 234 234 235 234 234 234 234 235 234 235 235 238 240 239 239 241 242 244 244 245 246 247 249 250 248 247 246 245 246 245 244 246 242 234 234 236 237 235 236 242 245 245 241 233 227 222 218 218 218 221 225 228 230 230 227 229 233 234 234 235 240 244 249 254 257 256 256 254 257 265 270 271 270 269 270 273 277 280 284 286 284 279
234 233 233 234 234 234 235 235 235 235 235 235 235 235 236 237 239 240 240 240 243 245 245 246 248 248 249 250 250 249 247 242 239 240 241 243 242 240 239 239 240 239 238 239 240 240 239 234 231 226 220 221 222 222 224 226 228 229 229 230 232 234 234 234 236 239 242 249 255 256 254 252 255 261 266 266 265 265 266 270 275 278 279 281 282 279
234 234 234 235 235 235 236 237 236 236 236 236 236 237 237 238 239 240 241 242 243 244 244 245 246 246 246 247 246 243 242 241 240 242 244 246 247 247 244 239 237 237 237 238 238 239 239 235 233 229 224 223 226 227 226 227 229 230 230 231 233 236 237 237 239 240 240 244 249 251 251 251 253 257 260 261 262 264 267 270 274 276 277 277 277 275
235 235 235 235 235 235 235 236 236 237 237 237 237 238 238 240 240 241 241 242 243 244 245 244 245 245 245 246 245 244 245 245 244 244 244 243 246 248 246 243 240 236 236 238 239 240 238 235 233 231 228 227 230 232 231 231 231 231 231 231 233 237 239 241 244 245 244 244 245 247 248 251 254 257 261 262 263 266 269 272 273 273 274 274 273 273
234 235 235 235 235 235 235 236 236 237 237 236 237 238 238 239 241 241 242 243 244 245 245 245 245 246 247 248 248 249 251 250 247 247 244 241 243 247 247 246 245 242 239 239 239 241 239 236 233 230 229 229 230 232 233 232 233 234 233 233 235 238 242 244 246 248 248 246 245 245 246 249 253 257 260 263 265 267 269 271 271 271 272 272 273 274
232 234 235 236 236 236 236 235 234 236 236 236 237 238 238 239 240 241 241 243 244 245 246 246 245 245 246 247 248 249 251 251 248 247 246 244 245 246 246 247 249 248 245 242 241 242 242 240 236 232 229 227 227 229 231 230 231 234 235 236 237 238 241 245 247 248 249 248 247 247 248 249 252 255 257 260 263 265 267 268 270 271 272 272 274 275
232 232 233 234 235 236 236 234 235 236 236 237 237 237 238 239 240 240 239 240 242 244 245 245 245 245 245 244 244 244 246 248 248 248 248 248 247 247 248 251 253 251 249 247 246 246 247 246 242 237 232 228 226 227 229 230 232 234 235 237 238 237 240 245 248 249 250 249 249 249 251 252 253 255 257 258 260 263 265 266 267 269 270 270 272 273
232 232 232 232 232 235 235 234 235 237 236 236 237 237 238 238 239 240 239 240 240 241 243 244 245 245 245 245 243 242 243 244 246 247 248 249 250 250 252 254 255 253 252 251 252 253 251 249 247 243 238 233 230 228 228 228 231 234 235 238 239 239 241 245 248 250 251 251 250 250 252 253 254 256 258 259 260 262 263 265 264 265 265 266 268 270
232 232 231 230 230 234 235 233 234 236 235 235 236 237 237 238 239 240 240 240 241 241 242 243 244 244 244 245 245 245 245 244 244 246 247 250 251 252 253 253 253 254 254 255 255 255 253 250 248 247 244 240 235 232 229 227 229 232 236 239 240 241 243 245 247 249 250 250 250 249 250 251 253 254 256 257 259 260 261 262 262 263 263 265 266 267
231 231 231 230 230 233 234 231 232 234 233 233 235 236 237 238 239 239 240 241 242 242 243 244 244 243 243 244 245 246 247 247 246 248 249 250 251 251 251 250 251 252 253 254 254 253 253 251 250 249 248 246 241 236 232 229 229 230 233 237 240 242 244 245 247 249 250 252 252 251 250 251 252 253 254 255 257 258 259 260 261 262 263 265 266 267
231 231 231 230 228 230 231 230 231 233 232 232 234 235 236 236 237 237 239 240 241 241 243 244 245 244 244 246 247 246 247 248 248 248 249 248 248 248 247 247 248 249 249 250 252 252 252 252 251 250 249 248 246 242 237 233 232 232 233 235 238 241 244 247 249 251 252 254 255 255 254 254 254 255 256 257 258 259 260 261 262 262 263 264 266 267
232 233 233 232 229 229 231 231 231 233 233 233 233 234 235 236 236 237 238 239 239 240 242 244 245 246 245 245 247 246 246 247 247 247 248 247 245 244 244 244 245 246 247 248 249 251 252 252 252 251 250 248 247 245 242 238 236 236 236 236 238 240 242 246 249 252 254 255 255 256 256 257 257 258 259 260 262 263 264 265 265 265 265 266 267 269
233 233 235 236 234 232 233 232 231 232 233 233 233 234 236 237 237 238 238 239 240 240 240 241 244 247 247 246 247 248 247 246 246 247 247 247 247 247 247 246 247 248 249 250 250 252 253 254 254 252 250 248 246 245 243 242 240 239 239 239 240 241 242 244 247 250 253 256 257 257 258 258 259 260 261 262 263 265 267 268 268 268 268 268 270 272
234 234 235 237 237 236 236 236 234 234 234 233 233 234 235 236 237 238 239 240 240 239 240 241 242 245 248 248 248 250 250 248 247 247 248 249 250 250 251 251 251 252 252 253 253 254 255 255 254 253 252 250 249 247 245 244 243 242 242 242 242 243 244 245 246 248 251 254 257 259 260 260 261 261 262 263 264 267 269 270 270 270 270 271 273 275
233 235 236 237 237 238 238 238 238 238 237 236 236 236 236 237 238 238 239 239 240 239 239 240 239 240 243 246 247 249 251 251 250 249 249 250 251 251 252 252 252 253 253 253 254 255 255 255 255 254 253 252 252 250 249 248 247 245 244 244 244 245 246 247 248 249 250 253 255 257 258 260 261 261 262 263 264 265 265 266 267 268 269 271 272 273
234 234 236 237 238 238 238 239 241 240 239 239 239 239 239 239 240 240 240 240 241 241 239 238 238 238 240 243 245 246 248 250 251 251 250 250 250 251 252 252 252 253 253 254 254 254 254 255 255 255 254 254 254 253 252 251 250 249 248 248 248 248 248 249 249 250 252 253 255 256 257 258 259 260 261 262 262 262 262 264 265 267 269 270 271 272
235 235 237 238 239 240 240 240 242 243 242 241 241 241 241 240 241 241 242 242 242 242 242 242 241 240 241 243 246 247 248 249 251 252 253 253 252 252 252 253 253 254 254 255 255 255 254 255 255 255 255 255 255 255 254 254 253 252 251 251 251 251 251 251 251 251 252 254 256 257 258 258 259 260 260 261 262 262 263 265 267 268 269 270 271 272
237 238 239 239 240 241 241 242 242 244 245 244 244 244 243 242 242 242 243 244 244 244 244 245 245 244 243 245 247 249 251 251 252 252 253 254 255 254 255 255 256 257 257 257 257 257 257 257 257 257 257 257 257 257 256 256 255 254 253 253 253 253 253 253 253 253 253 254 256 257 258 259 259 260 261 261 262 263 264 265 266 267 268 269 270 271
236 238 239 240 240 241 242 242 243 244 246 246 246 246 246 245 244 244 244 245 246 246 246 246 246 246 246 247 248 250 251 252 253 253 254 255 256 257 258 259 260 260 259 259 259 259 259 259 259 259 259 259 259 259 258 258 257 257 256 256 255 255 255 255 255 256 256 256 257 257 258 259 260 260 261 262 262 263 264 264 265 266 267 267 267 267
234 236 238 239 240 241 242 243 244 244 245 246 246 247 249 249 248 246 246 246 247 247 248 248 248 248 249 249 250 251 252 253 254 255 256 258 259 260 260 261 261 260 260 260 260 260 260 261 261 260 260 260 260 260 260 260 259 259 259 259 258 258 258 257 257 258 258 258 258 258 258 259 260 260 261 261 262 263 263 264 265 265 266 266 266 266
233 236 237 238 240 242 242 243 244 243 244 245 246 247 248 250 250 249 248 248 248 248 249 249 250 250 250 250 251 252 253 254 255 256 257 259 261 261 261 259 258 259 260 261 261 262 262 262 262 262 261 261 261 261 262 262 261 261 261 261 260 260 259 259 259 258 258 258 258 258 259 259 260 260 261 261 262 262 263 263 264 265 266 266 267 267
233 235 237 238 240 241 242 242 243 244 245 246 248 249 249 249 249 249 249 249 250 250 250 250 251 251 251 251 252 252 253 254 255 256 257 258 259 260 260 259 258 258 259 259 260 261 261 262 262 263 264 265 265 265 265 265 265 265 264 264 263 262 261 260 260 260 260 260 260 260 260 260 261 261 261 262 262 262 263 263 264 265 265 266 267 268
234 235 237 238 240 241 242 243 244 245 246 247 249 250 251 250 250 249 248 249 249 250 251 251 251 252 252 253 253 253 253 253 254 255 256 256 257 257 258 258 258 258 258 258 259 260 260 261 262 263 263 265 265 266 267 267 268 268 268 268 267 266 264 263 262 262 262 262 261 261 261 261 261 262 262 262 263 263 263 264 264 265 265 266 267 268
235 236 237 239 240 242 242 244 245 246 246 246 247 249 250 251 251 251 250 250 250 250 250 250 250 251 251 252 253 253 253 253 254 256 256 256 255 255 256 256 256 256 256 257 258 258 260 261 262 262 262 262 263 264 264 265 267 268 269 270 271 270 270 268 267 266 265 264 263 262 262 262 262 262 262 263 263 263 264 265 265 266 266 267 268 269
236 236 237 238 241 242 242 243 244 244 244 245 246 247 248 249 251 252 252 252 251 251 250 250 250 250 250 251 251 253 254 254 254 254 255 254 254 254 254 254 255 255 255 255 255 256 258 259 260 261 261 261 262 262 262 263 264 265 267 269 270 271 271 271 271 270 269 267 265 264 263 263 263 263 263 264 264 264 265 266 266 267 267 268 268 269
237 237 237 238 240 241 242 242 243 243 244 244 245 246 247 248 248 250 251 252 253 253 253 252 252 251 251 251 252 253 255 255 254 254 254 254 254 253 253 253 253 254 255 255 255 255 256 257 257 258 259 260 261 261 262 262 262 263 263 264 265 266 268 269 269 270 269 269 267 267 266 265 265 265 265 265 266 266 266 267 267 268 268 269 269 269
237 238 239 240 240 241 242 243 243 244 243 244 246 246 247 248 248 248 249 249 251 253 253 254 254 254 254 254 254 254 254 255 255 255 255 256 255 255 254 254 254 254 254 255 256 256 257 257 257 257 257 258 259 259 260 260 261 261 262 262 262 263 264 265 267 267 268 268 268 268 267 267 267 266 267 267 267 268 268 268 269 269 270 270 270 270
238 238 239 240 241 242 243 243 245 246 245 245 246 247 248 248 249 249 249 248 248 250 251 252 254 255 256 257 257 257 257 257 257 256 256 256 256 256 256 256 256 256 256 256 256 257 257 257 258 258 258 258 258 258 259 259 259 259 259 260 261 261 262 264 265 266 266 267 267 267 267 267 267 268 268 268 268 268 269 269 269 269 269 270 270 270
237 238 239 240 241 242 243 244 244 246 246 247 247 248 249 249 250 250 250 250 249 250 251 252 253 254 255 256 256 257 257 258 258 258 258 258 258 258 257 257 257 257 257 258 258 259 259 259 259 258 258 258 258 258 258 258 259 259 259 259 260 261 261 262 263 263 264 264 264 264 264 264 264 264 265 265 265 265 266 266 266 266 267 267 267 267
238 238 239 240 241 241 243 244 244 245 245 246 247 247 248 249 250 251 251 251 251 252 252 253 253 253 253 254 254 255 256 256 257 258 258 259 260 260 260 260 260 259 259 259 259 260 260 261 261 261 261 261 261 261 261 261 261 261 261 262 262 262 263 263 264 264 264 264 264 264 263 263 262 262 261 261 261 261 261 261 262 262 263 263 264 264
243 242 242 242 243 242 243 244 245 245 246 246 247 247 248 249 250 251 251 252 252 253 253 253 253 253 254 254 255 255 256 256 256 257 257 258 259 259 260 261 261 261 261 261 262 262 262 262 262 263 263 263 263 263 264 264 264 264 264 264 264 265 265 266 266 267 267 267 267 267 266 266 265 264 263 262 261 260 260 260 260 260 261 262 263 263
248 248 247 247 247 247 247 247 248 249 249 249 249 249 250 250 251 252 252 253 254 254 254 254 254 255 255 255 255 256 256 257 257 257 258 258 258 259 260 260 261 261 262 262 263 263 263 264 264 264 264 264 264 264 265 265 265 265 265 265 265 266 267 267 268 268 269 269 269 269 268 268 267 266 266 265 264 263 262 262 261 261 261 261 262 263
248 248 249 249 249 250 250 251 251 252 253 253 253 253 253 253 253 254 254 255 256 257 257 256 256 256 257 257 257 257 257 258 258 258 258 259 259 259 260 260 261 261 262 262 263 263 263 264 264 265 265 265 265 265 265 265 265 265 266 266 266 267 267 268 268 269 269 269 269 269 269 268 268 268 267 267 266 266 265 264 264 263 263 262 262 262
247 248 248 249 250 250 250 251 252 252 253 253 254 254 255 255 256 256 256 257 257 258 259 259 258 258 258 258 258 258 258 259 259 259 259 260 260 260 260 261 261 262 262 262 263 263 263 264 264 265 265 266 266 266 266 266 267 267 267 267 268 268 268 268 269 269 269 269 269 269 269 269 269 268 268 268 267 267 266 265 265 264 264 263 263 263
248 248 249 250 251 251 251 252 252 252 252 252 253 253 254 254 255 255 256 257 257 258 258 259 259 259 259 259 259 259 259 259 260 260 260 260 260 261 261 261 262 262 263 263 263 263 264 265 265 266 266 266 267 267 267 268 268 268 269 269 269 269 269 269 269 269 269 270 270 270 269 269 268 268 268 268 268 267 266 265 265 264 263 263 262 262
249 249 250 250 251 252 252 252 252 252 253 253 253 253 253 253 253 254 255 255 256 257 257 258 258 258 258 258 258 258 258 259 259 260 260 261 261 261 262 262 263 263 263 264 264 265 265 265 266 266 267 267 267 268 268 268 269 269 270 270 270 270 270 270 270 270 270 270 270 270 269 269 269 268 268 268 267 267 266 265 264 264 263 262 261 260